Погода в Михайловке

Россия / Республика Бурятия     51°53′39″N   110°28′03″E
темп.,
°C
ветер,
м/с
пор.,
м/с
влажн.,
%
обл.,
%
осадки,
мм/ч
давл.,
гПа
погр.,
м
9 марта, вт
вт923:00−13зюз11966 0.0 102721
02:00−14юв119953 0.0 102821
05:00−14в1198100 0.0 102720
08:00−13всв129385 0.0 102621
11:00−6в127628 0.0 1021284
14:00−1ссв018014 0.0 1016290
17:00−1зсз228591 0.0 101473
20:00−5з229296 0.0 101932
10 марта, ср
ср1023:00−8зюз3495100 0.0 102258
02:00−8зюз489359 0.0 1025180
05:00−11зюз349528 0.0 102762
08:00−11зюз378714 0.0 1030162
11:00−4з58670 0.0 1029782
14:00−2з46650 0.0 1026806
17:00−2зюз25770 0.0 1025367
20:00−8юв12820 0.0 102621
11 марта, чт
чт1123:00−10вюв11876 0.0 102621
02:00−11вюв11893 0.0 102521
05:00−12в019183 0.0 102621
08:00−11в119171 0.0 102721
11:00−4юз12790 0.0 1024264
14:00−1юз13800 0.0 1022329
17:000юз12840 0.0 1021132
20:00−6ююв11870 0.0 102321
12 марта, пт
пт1223:00−7ююв11890 0.0 102421
02:00−8ю11872 0.0 102421
05:00−9юв11870 0.0 102321
08:00−8ююв11850 0.0 102224
11:00+1юз26720 0.0 1017318
14:00+4зюз497337 0.0 1014632
17:00+2зюз3975100 0.0 1014428
20:00−4з228397 0.0 101741
13 марта, сб
сб1323:00−7зюз118858 0.0 101821
02:00−8ююз119029 0.0 101721
05:00−8ююз008855 0.0 101521
08:00−7юв118776 0.0 101322
11:00−1юз127032 0.0 1008206
14:00+2зюз136864 0.0 1003254
17:00+2в117454 0.0 99824
20:00−2с128273 0.0 99721